Weather History for KLUM - May, 2014

Change the Weather History Date:

Sunday, May 18, 2014

  Actual Average (KEAU) Record (KEAU)
Temperature  
Mean Temperature 58 °F 58 °F  
Max Temperature 73 °F 70 °F 91 °F (1972)
Min Temperature 44 °F 46 °F 29 °F (2002)
Degree Days  
Heating Degree Days 6 8  
Month to date heating degree days 178  
Since 1 July heating degree days 7819  
Cooling Degree Days 0 1  
Month to date cooling degree days 12  
Year to date cooling degree days 16  
Growing Degree Days 8 (Base 50)    
Moisture  
Dew Point 34 °F    
Average Humidity 40    
Maximum Humidity 71    
Minimum Humidity 20    
Precipitation  
Precipitation 0.00 in 0.11 in 1.79 in (1938)
Month to date precipitation 1.95  
Year to date precipitation 8.13  
Snow  
Snow 0.00 in 0.00 in T in (1915)
Month to date snowfall 0.2  
Since 1 July snowfall 47.0  
Snow Depth -    
Sea Level Pressure  
Sea Level Pressure 30.05 in    
Wind  
Wind Speed 5 mph (SSW)    
Max Wind Speed 20 mph    
Max Gust Speed 26 mph    
Visibility 10 miles    
Events      
T = Trace of Precipitation, MM = Missing Value Source: NWS Daily Summary

Daily Weather History Graph

Daily Weather History Graph

Search for Another Location

Airport or City:

Trip Planner

Search our weather history database for the weather conditions in past years. The results will help you decide how hot, cold, wet, or windy it might be!

Date:

Astronomy

May. 18, 2014 Rise Set
Actual Time 5:35 AM CDT 8:32 PM CDT
Civil Twilight 5:01 AM CDT 9:07 PM CDT
Nautical Twilight 4:16 AM CDT 9:51 PM CDT
Astronomical Twilight 3:24 AM CDT 10:44 PM CDT
Moon No Moon Rise 9:26 AM CDT (5/18)
Length of Visible Light 16h 06m
Length of Day
14h 57m
Waning Gibbous, 81% of the Moon is Illuminated
May 18
Waning Gibbous
May 21
Last Quarter
May 28
New
Jun 5
First Quarter
Jun 12
Full

Hourly Weather History & Observations

Time (CDT) Temp. Dew Point Humidity Pressure Visibility Wind Dir Wind Speed Gust Speed Precip Events Conditions
12:15 AM 46.6 °F 36.1 °F 67% 30.03 in 10.0 mi Calm Calm - N/A   Clear
12:35 AM 45.7 °F 36.0 °F 69% 30.03 in 10.0 mi Calm Calm - N/A   Clear
12:55 AM 44.6 °F 35.6 °F 71% 30.03 in 10.0 mi Calm Calm - N/A   Clear
1:15 AM 45.0 °F 34.2 °F 66% 30.03 in 10.0 mi Calm Calm - N/A   Mostly Cloudy
1:35 AM 45.9 °F 34.3 °F 64% 30.03 in 10.0 mi Calm Calm - N/A   Overcast
1:55 AM 46.2 °F 36.5 °F 69% 30.03 in 10.0 mi Calm Calm - N/A   Overcast
2:15 AM 46.0 °F 36.5 °F 69% 30.03 in 10.0 mi Calm Calm - N/A   Overcast
2:35 AM 46.9 °F 36.5 °F 67% 30.03 in 10.0 mi Calm Calm - N/A   Overcast
2:55 AM 48.7 °F 34.7 °F 58% 30.03 in 10.0 mi Calm Calm - N/A   Overcast
3:15 AM 48.4 °F 35.1 °F 60% 30.03 in 10.0 mi Calm Calm - N/A   Overcast
3:35 AM 48.2 °F 36.1 °F 63% 30.03 in 10.0 mi Calm Calm - N/A   Overcast
3:55 AM 49.8 °F 33.4 °F 53% 30.04 in 10.0 mi Calm Calm - N/A   Mostly Cloudy
4:15 AM 50.2 °F 32.9 °F 52% 30.04 in 10.0 mi Calm Calm - N/A   Mostly Cloudy
4:35 AM 49.8 °F 31.6 °F 50% 30.04 in 10.0 mi SSW 5.8 mph - N/A   Scattered Clouds
4:55 AM 49.6 °F 31.6 °F 50% 30.04 in 10.0 mi SSW 4.6 mph - N/A   Scattered Clouds
5:15 AM 50.2 °F 31.3 °F 48% 30.05 in 10.0 mi SW 4.6 mph - N/A   Scattered Clouds
5:35 AM 49.1 °F 31.1 °F 50% 30.05 in 10.0 mi Calm Calm - N/A   Scattered Clouds
5:55 AM 49.1 °F 31.8 °F 51% 30.06 in 10.0 mi SW 5.8 mph - N/A   Scattered Clouds
6:15 AM 49.5 °F 32.0 °F 51% 30.07 in 10.0 mi WSW 4.6 mph - N/A   Clear
6:35 AM 50.0 °F 32.0 °F 50% 30.07 in 10.0 mi SW 3.5 mph - N/A   Clear
6:55 AM 50.9 °F 34.5 °F 54% 30.07 in 10.0 mi SW 4.6 mph - N/A   Clear
7:15 AM 52.7 °F 34.7 °F 50% 30.08 in 10.0 mi SW 4.6 mph - N/A   Clear
7:35 AM 54.5 °F 34.7 °F 47% 30.08 in 10.0 mi WSW 4.6 mph - N/A   Clear
7:55 AM 56.5 °F 34.5 °F 44% 30.08 in 10.0 mi WSW 5.8 mph - N/A   Clear
8:15 AM 58.3 °F 35.1 °F 42% 30.08 in 10.0 mi WSW 8.1 mph - N/A   Clear
8:35 AM 59.5 °F 35.2 °F 40% 30.09 in 10.0 mi WSW 11.5 mph 17.3 mph N/A   Clear
8:55 AM 60.8 °F 36.0 °F 40% 30.09 in 10.0 mi WSW 11.5 mph - N/A   Clear
9:15 AM 62.6 °F 36.7 °F 38% 30.09 in 10.0 mi West 9.2 mph - N/A   Clear
9:35 AM 64.6 °F 36.3 °F 35% 30.09 in 10.0 mi West 12.7 mph - N/A   Clear
9:55 AM 66.0 °F 36.7 °F 34% 30.09 in 10.0 mi WSW 10.4 mph - N/A   Clear
10:15 AM 66.2 °F 35.6 °F 32% 30.09 in 10.0 mi West 9.2 mph - N/A   Clear
10:35 AM 67.5 °F 36.0 °F 31% 30.09 in 10.0 mi SW 13.8 mph - N/A   Clear
10:55 AM 68.5 °F 36.1 °F 30% 30.09 in 10.0 mi SW 13.8 mph - N/A   Clear
11:15 AM 69.6 °F 34.9 °F 28% 30.09 in 10.0 mi SW 9.2 mph - N/A   Clear
11:35 AM 69.3 °F 34.5 °F 28% 30.09 in 10.0 mi SW 11.5 mph 19.6 mph N/A   Clear
11:55 AM 69.4 °F 32.5 °F 26% 30.09 in 10.0 mi WSW 8.1 mph - N/A   Clear
12:15 PM 70.5 °F 32.4 °F 24% 30.09 in 10.0 mi SW 12.7 mph 21.9 mph N/A   Clear
12:35 PM 70.9 °F 32.0 °F 24% 30.08 in 10.0 mi SW 15.0 mph 21.9 mph N/A   Clear
12:55 PM 71.4 °F 31.1 °F 23% 30.08 in 10.0 mi SSW 12.7 mph 21.9 mph N/A   Clear
1:15 PM 70.3 °F 32.9 °F 25% 30.08 in 10.0 mi SW 9.2 mph 17.3 mph N/A   Scattered Clouds
1:35 PM 71.6 °F 31.3 °F 23% 30.07 in 10.0 mi SW 11.5 mph 20.7 mph N/A   Scattered Clouds
1:55 PM 70.9 °F 32.0 °F 24% 30.06 in 10.0 mi South 13.8 mph 20.7 mph N/A   Mostly Cloudy
2:15 PM 72.0 °F 30.7 °F 22% 30.06 in 10.0 mi SSW 16.1 mph 24.2 mph N/A   Scattered Clouds
2:35 PM 71.1 °F 28.6 °F 21% 30.06 in 10.0 mi SW 11.5 mph 26.5 mph N/A   Scattered Clouds
2:55 PM 72.0 °F 30.0 °F 21% 30.05 in 10.0 mi South 19.6 mph 25.3 mph N/A   Mostly Cloudy
3:15 PM 71.1 °F 29.3 °F 21% 30.05 in 10.0 mi South 15.0 mph 20.7 mph N/A   Scattered Clouds
3:35 PM 73.0 °F 29.7 °F 20% 30.05 in 10.0 mi SSW 13.8 mph 18.4 mph N/A   Scattered Clouds
3:55 PM 72.7 °F 30.4 °F 21% 30.04 in 10.0 mi SW 17.3 mph 23.0 mph N/A   Mostly Cloudy
4:15 PM 71.8 °F 29.7 °F 21% 30.04 in 10.0 mi South 15.0 mph 24.2 mph N/A   Scattered Clouds
4:35 PM 72.5 °F 29.5 °F 20% 30.03 in 10.0 mi SSW 16.1 mph - N/A   Scattered Clouds
4:55 PM 70.7 °F 30.2 °F 22% 30.03 in 10.0 mi South 15.0 mph 18.4 mph N/A   Clear
5:15 PM 70.2 °F 31.5 °F 24% 30.03 in 10.0 mi South 11.5 mph 17.3 mph N/A   Mostly Cloudy
5:35 PM 71.2 °F 31.1 °F 23% 30.03 in 10.0 mi SSW 12.7 mph 21.9 mph N/A   Mostly Cloudy
5:55 PM 71.4 °F 29.8 °F 21% 30.03 in 10.0 mi SW 15.0 mph 25.3 mph N/A   Mostly Cloudy
6:15 PM 70.5 °F 31.6 °F 24% 30.03 in 10.0 mi South 12.7 mph - N/A   Scattered Clouds
6:35 PM 70.3 °F 30.7 °F 23% 30.03 in 10.0 mi SSW 10.4 mph - N/A   Scattered Clouds
6:55 PM 69.1 °F 31.5 °F 25% 30.03 in 10.0 mi South 8.1 mph 11.5 mph N/A   Clear
7:15 PM 67.5 °F 32.2 °F 27% 30.03 in 10.0 mi South 6.9 mph - N/A   Clear
7:35 PM 65.5 °F 33.3 °F 30% 30.03 in 10.0 mi SSE 5.8 mph - N/A   Clear
7:55 PM 64.4 °F 34.2 °F 32% 30.02 in 10.0 mi SE 5.8 mph - N/A   Clear
8:15 PM 63.7 °F 34.3 °F 34% 30.02 in 10.0 mi SSE 5.8 mph - N/A   Clear
8:35 PM 62.8 °F 34.5 °F 35% 30.02 in 10.0 mi SE 5.8 mph - N/A   Clear
8:55 PM 61.3 °F 34.9 °F 37% 30.03 in 10.0 mi SE 4.6 mph - N/A   Clear
9:15 PM 59.9 °F 37.6 °F 44% 30.03 in 10.0 mi SE 4.6 mph - N/A   Clear
9:35 PM 57.2 °F 39.4 °F 51% 30.03 in 10.0 mi SE 5.8 mph - N/A   Clear
9:55 PM 55.6 °F 38.1 °F 52% 30.04 in 10.0 mi SE 4.6 mph - N/A   Clear
10:15 PM 57.0 °F 37.6 °F 48% 30.04 in 10.0 mi SE 4.6 mph - N/A   Clear
10:35 PM 57.4 °F 37.2 °F 47% 30.04 in 10.0 mi SE 4.6 mph - N/A   Clear
10:55 PM 54.3 °F 38.8 °F 56% 30.05 in 10.0 mi SSE 5.8 mph - N/A   Clear
11:15 PM 56.7 °F 36.5 °F 47% 30.05 in 10.0 mi SSE 9.2 mph - N/A   Clear
11:35 PM 59.5 °F 35.1 °F 40% 30.06 in 10.0 mi SSE 10.4 mph - N/A   Clear
11:55 PM 59.7 °F 35.1 °F 40% 30.06 in 10.0 mi SSE 9.2 mph - N/A   Clear